Zurück zum Katalog

STARLINK-1724

AktivKommunikationVLEO
NORAD 46375·PAYLOAD·🇺🇸 United States

Gestartet Sep 3, 2020 von Cape Canaveral Space Force Station

Loading…

Nächste Überflüge (nächste 24 Stunden)

TLE

AktuellSource: CelesTrak SupGP

Epoche: Sep 14, 2026, 20:45 UTC

1 46375C 20062BD  26257.86506944  .00952170  00000+0  91218-3 0  2573
2 46375  53.0068  66.3637 0010434 290.6934 212.6680 16.10428362    14

Verfolge STARLINK-1724 in Echtzeit mit AllMySat

Download on the App Store